| time (UTC) | temp C | wind direction | speed KPH | gust KPH | rain 1hr cm | rain 24hr cm | rain mn cm | humidity % | barometer mb |
| 20260831210022 | 21 | 219 | 3.2 | 9.7 | 0.00 | 0.10 | 0.00 | 60 | 1016.9 |
| 20260831204558 | 21 | 212 | 1.6 | 14.5 | 0.00 | 0.10 | 0.00 | 60 | 1017.0 |
| 20260831203033 | 21 | 207 | 1.6 | 8.0 | 0.00 | 0.10 | 0.00 | 60 | 1017.1 |
| 20260831201518 | 21 | 56 | 0.0 | 11.3 | 0.00 | 0.10 | 0.00 | 57 | 1017.0 |
| 20260831200057 | 21 | 229 | 1.6 | 14.5 | 0.00 | 0.10 | 0.00 | 57 | 1017.1 |
| 20260831194540 | 21 | 223 | 0.0 | 12.9 | 0.00 | 0.10 | 0.00 | 57 | 1017.3 |
| 20260831193118 | 20 | 227 | 0.0 | 17.7 | 0.00 | 0.10 | 0.00 | 61 | 1017.4 |
| 20260831184523 | 21 | 94 | 0.0 | 14.5 | 0.00 | 0.10 | 0.00 | 49 | 1017.5 |
| 20260831183058 | 21 | 237 | 3.2 | 11.3 | 0.00 | 0.10 | 0.00 | 50 | 1017.4 |
| 20260831181541 | 21 | 219 | 0.0 | 6.4 | 0.00 | 0.10 | 0.00 | 49 | 1017.6 |
| 20260831180039 | 21 | 227 | 3.2 | 14.5 | 0.00 | 0.10 | 0.00 | 53 | 1017.8 |
| 20260831174602 | 22 | 242 | 1.6 | 14.5 | 0.00 | 0.10 | 0.00 | 49 | 1017.9 |
| 20260831173036 | 22 | 233 | 3.2 | 11.3 | 0.00 | 0.10 | 0.00 | 45 | 1017.9 |
| 20260831171510 | 23 | 105 | 1.6 | 12.9 | 0.00 | 0.10 | 0.00 | 47 | 1017.8 |
| 20260831170047 | 23 | 222 | 1.6 | 14.5 | 0.00 | 0.10 | 0.00 | 46 | 1017.9 |
| 20260831164538 | 23 | 161 | 1.6 | 14.5 | 0.00 | 0.10 | 0.00 | 44 | 1018.2 |
| 20260831163102 | 25 | 170 | 0.0 | 9.7 | 0.00 | 0.10 | 0.00 | 36 | 1018.4 |
| 20260831161545 | 25 | 108 | 0.0 | 0.0 | 0.00 | 0.10 | 0.00 | 40 | 1018.3 |
| 20260831160019 | 24 | 355 | 0.0 | 4.8 | 0.00 | 0.10 | 0.00 | 39 | 1018.3 |
| 20260831154604 | 24 | 94 | 0.0 | 9.7 | 0.00 | 0.10 | 0.00 | 43 | 1018.5 |
| 20260831153028 | 23 | 306 | 0.0 | 8.0 | 0.00 | 0.10 | 0.00 | 43 | 1018.5 |
| 20260831121533 | 14 | 45 | 0.0 | 0.0 | 0.00 | 0.10 | 0.00 | 82 | 1018.6 |
| 20260831120041 | 13 | 20 | 0.0 | 0.0 | 0.00 | 0.10 | 0.00 | 87 | 1018.6 |
| 20260831114526 | 12 | 50 | 0.0 | 0.0 | 0.00 | 0.10 | 0.00 | 92 | 1018.8 |
| 20260831113051 | 12 | 316 | 0.0 | 0.0 | 0.00 | 0.10 | 0.00 | 93 | 1018.7 |
| 20260831111526 | 11 | 319 | 0.0 | 0.0 | 0.00 | 0.10 | 0.00 | 92 | 1018.4 |
| 20260831110012 | 11 | 319 | 0.0 | 0.0 | 0.00 | 0.10 | 0.00 | 92 | 1018.4 |
| 20260831104553 | 11 | 319 | 0.0 | 0.0 | 0.00 | 0.10 | 0.00 | 91 | 1018.2 |
| 20260831103017 | 11 | 319 | 0.0 | 0.0 | 0.00 | 0.10 | 0.00 | 90 | 1017.9 |
| 20260831101552 | 11 | 319 | 0.0 | 0.0 | 0.00 | 0.10 | 0.00 | 91 | 1017.8 |
| 20260831100033 | 11 | 319 | 0.0 | 0.0 | 0.00 | 0.10 | 0.00 | 90 | 1017.8 |
| 20260831094508 | 11 | 319 | 0.0 | 0.0 | 0.00 | 0.10 | 0.00 | 89 | 1017.6 |
| 20260831093050 | 11 | 318 | 0.0 | 0.0 | 0.00 | 0.10 | 0.00 | 88 | 1017.6 |
| 20260831091526 | 12 | 318 | 0.0 | 0.0 | 0.00 | 0.10 | 0.00 | 87 | 1017.4 |
| 20260831090101 | 12 | 318 | 0.0 | 0.0 | 0.00 | 0.10 | 0.00 | 87 | 1017.2 |
| 20260831084535 | 13 | 318 | 0.0 | 0.0 | 0.00 | 0.10 | 0.00 | 86 | 1016.9 |
| 20260831083009 | 13 | 318 | 0.0 | 0.0 | 0.00 | 0.10 | 0.00 | 86 | 1016.8 |
| 20260831081543 | 13 | 303 | 0.0 | 0.0 | 0.00 | 0.10 | 0.00 | 85 | 1016.8 |
| 20260831080029 | 13 | 324 | 0.0 | 0.0 | 0.00 | 0.10 | 0.00 | 84 | 1016.6 |
| 20260831074502 | 14 | 355 | 0.0 | 0.0 | 0.00 | 0.10 | 0.00 | 84 | 1016.5 |
| 20260831073037 | 13 | 306 | 0.0 | 1.6 | 0.00 | 0.10 | 0.00 | 86 | 1016.4 |
| 20260831071526 | 13 | 355 | 0.0 | 0.0 | 0.00 | 0.10 | 0.00 | 87 | 1016.3 |
| 20260831070052 | 13 | 325 | 0.0 | 0.0 | 0.00 | 0.10 | 0.00 | 87 | 1016.2 |
| 20260831064529 | 13 | 333 | 0.0 | 0.0 | 0.00 | 0.10 | 0.00 | 87 | 1016.2 |
| 20260831063005 | 13 | 10 | 0.0 | 0.0 | 0.00 | 0.10 | 0.00 | 87 | 1016.2 |
| 20260831061544 | 13 | 328 | 0.0 | 0.0 | 0.00 | 0.10 | 0.00 | 87 | 1016.0 |
| 20260831060030 | 13 | 20 | 0.0 | 0.0 | 0.00 | 0.10 | 0.00 | 87 | 1015.9 |
| 20260831054503 | 14 | 271 | 0.0 | 0.0 | 0.00 | 0.10 | 0.00 | 87 | 1015.7 |
| 20260831053042 | 14 | 309 | 0.0 | 0.0 | 0.00 | 0.10 | 0.00 | 88 | 1015.6 |
| 20260831051518 | 14 | 305 | 0.0 | 0.0 | 0.00 | 0.10 | 0.00 | 87 | 1015.4 |
| 20260831050055 | 14 | 305 | 0.0 | 0.0 | 0.00 | 0.10 | 0.00 | 87 | 1015.4 |
| 20260831044539 | 15 | 305 | 0.0 | 0.0 | 0.00 | 0.10 | 0.00 | 87 | 1015.4 |
| 20260831043013 | 15 | 305 | 0.0 | 0.0 | 0.00 | 0.10 | 0.00 | 86 | 1015.4 |
| 20260831041559 | 15 | 305 | 0.0 | 0.0 | 0.00 | 0.10 | 0.00 | 85 | 1015.3 |
| 20260831040024 | 16 | 305 | 0.0 | 0.0 | 0.00 | 0.10 | 0.10 | 84 | 1015.4 |
| 20260831034607 | 16 | 305 | 0.0 | 0.0 | 0.00 | 0.10 | 0.10 | 82 | 1015.3 |
| 20260831033040 | 16 | 311 | 0.0 | 0.0 | 0.03 | 0.10 | 0.10 | 81 | 1015.0 |
| 20260831031519 | 17 | 321 | 0.0 | 3.2 | 0.03 | 0.10 | 0.10 | 79 | 1015.1 |
| 20260831030051 | 17 | 57 | 0.0 | 9.7 | 0.10 | 0.10 | 0.10 | 78 | 1015.3 |
| 20260831024527 | 17 | 86 | 1.6 | 12.9 | 0.10 | 0.10 | 0.10 | 76 | 1015.6 |
| 20260831023012 | 18 | 5 | 1.6 | 12.9 | 0.08 | 0.08 | 0.08 | 75 | 1015.4 |
| 20260831021552 | 20 | 215 | 0.0 | 9.7 | 0.08 | 0.08 | 0.08 | 73 | 1015.4 |
| 20260831020024 | 20 | 310 | 0.0 | 0.0 | 0.00 | 0.00 | 0.00 | 71 | 1014.3 |
| 20260831014502 | 20 | 310 | 0.0 | 0.0 | 0.00 | 0.00 | 0.00 | 72 | 1014.1 |
| 20260831013039 | 20 | 310 | 0.0 | 0.0 | 0.00 | 0.00 | 0.00 | 72 | 1013.9 |
| 20260831011516 | 20 | 310 | 0.0 | 0.0 | 0.00 | 0.00 | 0.00 | 72 | 1013.7 |
| 20260831010054 | 20 | 310 | 0.0 | 0.0 | 0.00 | 0.00 | 0.00 | 71 | 1013.6 |
| 20260831004538 | 21 | 296 | 0.0 | 0.0 | 0.00 | 0.00 | 0.00 | 70 | 1013.5 |
| 20260831003015 | 21 | 296 | 0.0 | 0.0 | 0.00 | 0.00 | 0.00 | 69 | 1013.3 |
| 20260831001550 | 20 | 262 | 0.0 | 0.0 | 0.00 | 0.00 | 0.00 | 69 | 1013.5 |
| 20260831000023 | 21 | 261 | 0.0 | 0.0 | 0.00 | 0.00 | 0.00 | 71 | 1013.1 |
| 20260830234512 | 21 | 261 | 0.0 | 0.0 | 0.00 | 0.00 | 0.00 | 70 | 1013.0 |
| 20260830233049 | 21 | 265 | 0.0 | 0.0 | 0.00 | 0.00 | 0.00 | 70 | 1013.0 |
| 20260830231523 | 22 | 265 | 0.0 | 0.0 | 0.00 | 0.00 | 0.00 | 68 | 1013.0 |
| 20260830230050 | 22 | 265 | 0.0 | 0.0 | 0.00 | 0.00 | 0.00 | 65 | 1013.0 |
| 20260830224536 | 22 | 265 | 0.0 | 0.0 | 0.00 | 0.00 | 0.00 | 63 | 1013.0 |
| 20260830223012 | 22 | 263 | 0.0 | 0.0 | 0.00 | 0.00 | 0.00 | 62 | 1013.2 |
| 20260830221548 | 23 | 263 | 0.0 | 0.0 | 0.00 | 0.00 | 0.00 | 61 | 1013.2 |
| 20260830220023 | 23 | 265 | 0.0 | 0.0 | 0.00 | 0.00 | 0.00 | 59 | 1013.2 |
| 20260830214508 | 23 | 241 | 0.0 | 0.0 | 0.00 | 0.00 | 0.00 | 58 | 1013.3 |
| 20260830213054 | 23 | 263 | 0.0 | 1.6 | 0.00 | 0.00 | 0.00 | 58 | 1013.4 |
| 20260830211544 | 23 | 243 | 0.0 | 0.0 | 0.00 | 0.00 | 0.00 | 58 | 1013.5 |